Location: Prague
(50.0830°N, 14.4670°E)
Time: 23:30:50
(UTC+01:00)

HuskySat-1 - Pass Details

Date: 03 December 2021
Orbit: 439 x 453 km, 51.6° (Epoch: 25 January)

Event Time Altitude Azimuth Distance (km) Brightness Sun altitude
Rises 18:42:56 0° 241° (WSW) 2,466 ? -24.9°
Reaches altitude 10° 18:45:05 10° 238° (WSW) 1,593 ? -25.2°
Enters shadow 18:47:10 32° 228° (SW) 807 ? -25.5°
